Renton, WA

7:03 PM PDT on September 27, 2016 (GMT -0700)
Renton Municipal

Weather History for KRNT - April, 2014

Change the Weather History Date:

Wednesday, April 2, 2014

  Actual Average Record
Temperature  
Mean Temperature 52 °F -  
Max Temperature 60 °F 54 °F 64 °F (2012)
Min Temperature 43 °F 39 °F 30 °F (2008)
Degree Days  
Heating Degree Days 14    
Growing Degree Days 2 (Base 50)    
Moisture  
Dew Point 40 °F    
Average Humidity 71    
Maximum Humidity 97    
Minimum Humidity 38    
Precipitation  
Precipitation 0.00 in - - ()
Sea Level Pressure  
Sea Level Pressure 30.00 in    
Wind  
Wind Speed 4 mph (South)    
Max Wind Speed 10 mph    
Max Gust Speed 18 mph    
Visibility 10 miles    
Events      
Averages and records for this station are not official NWS values.
T = Trace of Precipitation, MM = Missing Value Source: NWS Daily Summary

Daily Weather History Graph

Daily Weather History Graph

Search for Another Location

Airport or City:

Trip Planner

Search our weather history database for the weather conditions in past years. The results will help you decide how hot, cold, wet, or windy it might be!

Date:

Astronomy

Apr. 02, 2014 Rise Set
Actual Time 6:45 AM PDT 7:40 PM PDT
Civil Twilight 6:14 AM PDT 8:11 PM PDT
Nautical Twilight 5:36 AM PDT 8:48 PM PDT
Astronomical Twilight 4:57 AM PDT 9:28 PM PDT
Moon 8:22 AM PDT (4/2) 11:21 PM PDT (4/2)
Length of Visible Light 13h 57m
Length of Day
12h 54m
Waxing Crescent, 11% of the Moon is Illuminated
Apr 2
Waxing Crescent
Apr 7
First Quarter
Apr 15
Full
Apr 22
Last Quarter
Apr 28
New

Hourly Weather History & Observations

Time (PDT) Temp. Windchill Dew Point Humidity Pressure Visibility Wind Dir Wind Speed Gust Speed Precip Events Conditions
12:53 AM 46.0 °F 44.8 °F 42.1 °F 86% 29.94 in 10.0 mi SSE 3.5 mph - N/A   Partly Cloudy
1:53 AM 44.1 °F - 41.0 °F 89% 29.95 in 10.0 mi Calm Calm - N/A   Clear
2:23 AM 44.1 °F - 42.1 °F 93% 29.93 in 10.0 mi Calm Calm - N/A   Mostly Cloudy
2:53 AM 44.1 °F - 42.1 °F 93% 29.95 in 10.0 mi Calm Calm - N/A   Mostly Cloudy
3:03 AM 43.0 °F - 41.0 °F 93% 29.94 in 10.0 mi Calm Calm - N/A   Partly Cloudy
3:53 AM 43.0 °F - 41.0 °F 93% 29.96 in 10.0 mi Calm Calm - N/A   Scattered Clouds
4:01 AM 43.0 °F - 42.1 °F 97% 29.94 in 10.0 mi Calm Calm - N/A   Mostly Cloudy
5:45 AM 46.0 °F 43.9 °F 42.1 °F 86% 29.96 in 10.0 mi SE 4.6 mph - N/A   Overcast
5:53 AM 46.0 °F 43.1 °F 42.1 °F 86% 29.98 in 10.0 mi SSE 5.8 mph - N/A   Overcast
6:53 AM 46.0 °F 43.9 °F 42.1 °F 86% 29.99 in 10.0 mi ESE 4.6 mph - N/A   Overcast
7:53 AM 46.9 °F - 42.1 °F 83% 30.00 in 10.0 mi SSE 5.8 mph - N/A   Overcast
8:53 AM 46.9 °F - 42.1 °F 83% 30.01 in 10.0 mi SSE 5.8 mph - N/A   Overcast
9:53 AM 48.0 °F - 41.0 °F 77% 30.03 in 10.0 mi South 5.8 mph - N/A   Overcast
10:53 AM 50.0 °F - 42.1 °F 74% 30.04 in 10.0 mi SSE 6.9 mph - N/A   Overcast
11:44 AM 50.0 °F - 39.9 °F 68% 30.02 in 10.0 mi South 8.1 mph - N/A   Overcast
11:53 AM 50.0 °F - 39.9 °F 68% 30.04 in 10.0 mi Variable 3.5 mph - N/A   Overcast
12:53 PM 55.0 °F - 39.0 °F 55% 30.03 in 10.0 mi SSE 8.1 mph - N/A   Mostly Cloudy
1:53 PM 57.0 °F - 37.9 °F 49% 30.03 in 10.0 mi South 8.1 mph - N/A   Partly Cloudy
2:53 PM 57.2 °F - 37.4 °F 48% 30.00 in 10.0 mi South 8.1 mph 16.1 mph N/A   Clear
3:53 PM 60.1 °F - 35.1 °F 39% 30.01 in 10.0 mi South 9.2 mph - N/A   Clear
4:53 PM 59.0 °F - 33.1 °F 38% 30.01 in 10.0 mi South 9.2 mph 18.4 mph N/A   Clear
5:53 PM 59.0 °F - 35.1 °F 41% 30.01 in 10.0 mi SW 10.4 mph - N/A   Clear
6:53 PM 57.0 °F - 34.0 °F 42% 30.00 in 10.0 mi SW 8.1 mph - N/A   Clear
7:53 PM 55.0 °F - 37.0 °F 51% 30.01 in 10.0 mi SSW 6.9 mph - N/A   Clear
8:53 PM 53.6 °F - 37.4 °F 54% 30.00 in 10.0 mi South 3.5 mph - N/A   Clear
9:53 PM 51.1 °F - 39.9 °F 66% 30.02 in 10.0 mi SSW 4.6 mph - N/A   Clear
10:53 PM 48.9 °F - 39.9 °F 71% 30.03 in 10.0 mi Calm Calm - N/A   Clear
11:53 PM 48.9 °F - 39.9 °F 71% 30.04 in 10.0 mi SSE 6.9 mph - N/A   Clear